Location: Home
(51.5204°N, 2.5456°W)
Time: 11:20:23
(UTC+00:00)

STRAND 1 - Pass Details

Date: 14 December 2019
Orbit: 768 x 781 km, 98.5° (Epoch: 17 January)

Event Time Altitude Azimuth Distance (km) Brightness Sun altitude
Rises 06:41:31 0° 167° (SSE) 3,244 ? -12.5°
Reaches altitude 10° 06:43:49 10° 168° (SSE) 2,319 ? -12.2°
Maximum altitude 06:48:56 79° 255° (WSW) 794 ? -11.4°
Drops below altitude 10° 06:54:05 10° 343° (NNW) 2,327 ? -10.7°
Sets 06:56:24 0° 345° (NNW) 3,257 ? -10.4°
